Date String (YYYY-MM-DD hh:mm:ss) UTC,Instrument flags,Ambient pressure (hPa),Sample flow (lpm),Bypass flow (lpm),Sample temperature (°C),Ambient temperature (°C),ASC tube jacket temperature (°C),LED temperature (°C),Box temperature (°C),Sample RH (%),Span deviation,Mass concentration (μg/m³),Mass concentration (μg/m³),Mass concentration (μg/m³)
DateTimeUTC,F1_M11,P_M11,Q1_M11,Q2_M11,T1_M11,T2_M11,T3_M11,T4_M11,T5_M11,U1_M11,ZSPAN_M11,X2_M11,X0_M11,X1_M11
2022-02-03 23:00:00,,0828.4,4.99,0.00,23.2,22.4,00.0,32.1,25.0,04.9,0003.3,0010.52,0014.60,0010.07
2022-02-03 23:01:00,,0828.4,5.00,0.00,23.2,22.4,00.0,32.1,25.0,05.0,0002.9,0010.47,0014.71,0010.01
2022-02-03 23:02:00,,0828.4,5.00,0.00,23.2,22.4,00.0,32.1,25.0,04.9,0002.5,0010.45,0014.57,0009.98
2022-02-03 23:03:00,,0828.4,4.99,0.00,23.2,22.4,00.0,32.1,25.0,05.0,0002.1,0010.49,0014.61,0010.02
2022-02-03 23:04:00,,0828.4,5.01,0.00,23.2,22.4,00.0,32.1,25.0,05.0,0001.8,0010.53,0014.92,0010.07
2022-02-03 23:05:00,,0828.4,4.99,0.00,23.2,22.4,00.0,32.1,25.0,04.9,0001.3,0010.60,0015.37,0010.13
2022-02-03 23:06:00,,0828.4,5.02,0.00,23.2,22.4,00.0,32.1,25.0,05.0,0001.0,0010.67,0015.48,0010.18
2022-02-03 23:07:00,,0828.3,5.00,0.00,23.2,22.4,00.0,32.1,24.9,04.9,0000.9,0010.69,0015.51,0010.20
2022-02-03 23:08:00,,0828.4,5.01,0.00,23.2,22.3,00.0,32.1,24.9,04.8,0000.6,0010.69,0015.81,0010.20
2022-02-03 23:09:00,,0828.3,4.98,0.00,23.1,22.3,00.0,32.1,24.9,04.7,0000.8,0010.64,0015.85,0010.16
2022-02-03 23:10:00,,0828.4,5.00,0.00,23.1,22.3,00.0,32.1,24.9,04.7,0000.7,0010.57,0015.73,0010.11
2022-02-03 23:11:00,,0828.3,5.00,0.00,23.1,22.3,00.0,32.1,24.9,04.8,0000.4,0010.56,0015.59,0010.10
2022-02-03 23:12:00,,0828.4,5.01,0.00,23.1,22.3,00.0,32.1,24.9,04.8,0000.6,0010.60,0015.30,0010.11
2022-02-03 23:13:00,,0828.3,5.00,0.00,23.1,22.3,00.0,32.1,24.9,04.9,0000.8,0010.65,0016.01,0010.13
2022-02-03 23:14:00,,0828.3,5.00,0.00,23.1,22.3,00.0,32.1,24.9,04.9,0001.0,0010.60,0015.95,0010.10
2022-02-03 23:15:00,,0828.3,5.01,0.00,23.1,22.3,00.0,32.1,24.9,04.9,0001.6,0010.50,0015.76,0010.02
2022-02-03 23:16:00,,0828.3,4.99,0.00,23.1,22.3,00.0,32.1,24.9,04.9,0002.0,0010.45,0015.76,0009.96
2022-02-03 23:17:00,,0828.3,5.01,0.00,23.1,22.3,00.0,32.0,24.8,04.9,0001.9,0010.43,0015.96,0009.93
2022-02-03 23:18:00,,0828.3,4.99,0.00,23.1,22.2,00.0,32.0,24.8,04.9,0002.2,0010.39,0016.57,0009.90
2022-02-03 23:19:00,,0828.3,5.00,0.00,23.1,22.2,00.0,32.0,24.8,05.0,0002.0,0010.41,0016.99,0009.90
2022-02-03 23:20:00,,0828.3,5.02,0.00,23.0,22.2,00.0,32.0,24.7,05.0,0001.9,0010.48,0017.00,0009.94
2022-02-03 23:21:00,,0828.3,4.99,0.00,23.0,22.1,00.0,32.0,24.7,05.1,0002.1,0010.55,0017.11,0009.99
2022-02-03 23:22:00,,0828.4,5.01,0.00,22.9,22.0,00.0,32.0,24.6,05.1,0002.5,0010.55,0017.05,0010.01
2022-02-03 23:23:00,,0828.3,4.99,0.00,22.9,22.0,00.0,32.0,24.5,05.3,0002.3,0010.59,0016.99,0010.03
2022-02-03 23:24:00,,0828.3,5.01,0.00,22.9,22.0,00.0,32.0,24.5,05.3,0001.9,0010.59,0016.31,0010.04
2022-02-03 23:25:00,,0828.2,4.99,0.00,22.8,21.9,00.0,32.0,24.4,05.3,0001.8,0010.67,0016.51,0010.07
2022-02-03 23:26:00,,0828.2,5.01,0.00,22.8,21.9,00.0,31.9,24.4,05.4,0001.5,0010.76,0016.68,0010.13
2022-02-03 23:27:00,,0828.1,4.98,0.00,22.8,21.9,00.0,31.9,24.5,05.4,0001.3,0010.81,0016.11,0010.18
2022-02-03 23:28:00,,0828.2,5.01,0.00,22.8,21.9,00.0,31.9,24.4,05.4,0001.4,0010.89,0015.93,0010.28
2022-02-03 23:29:00,,0828.1,4.99,0.00,22.7,21.9,00.0,31.9,24.4,05.4,0001.1,0011.08,0015.51,0010.46
2022-02-03 23:30:00,,0828.1,5.01,0.00,22.7,21.9,00.0,31.8,24.3,05.4,0001.3,0011.23,0015.63,0010.62
2022-02-03 23:31:00,,0828.3,4.99,0.00,22.7,21.8,00.0,31.8,24.3,05.4,0001.4,0011.36,0015.81,0010.77
2022-02-03 23:32:00,,0828.4,5.01,0.00,22.6,21.8,00.0,31.8,24.3,05.4,0000.7,0011.50,0016.22,0010.92
2022-02-03 23:33:00,,0828.1,4.99,0.00,22.6,21.8,00.0,31.8,24.3,05.5,0000.4,0011.66,0016.84,0011.07
2022-02-03 23:34:00,,0828.2,5.00,0.00,22.6,21.8,00.0,31.8,24.2,05.4,0000.3,0011.77,0016.96,0011.20
2022-02-03 23:35:00,,0828.1,5.01,0.00,22.6,21.8,00.0,31.7,24.2,05.5,0000.8,0011.89,0017.01,0011.33
2022-02-03 23:36:00,,0828.1,5.01,0.00,22.5,21.7,00.0,31.7,24.1,05.5,0001.1,0011.96,0016.99,0011.43
2022-02-03 23:37:00,,0828.1,5.00,0.00,22.5,21.7,00.0,31.7,24.1,05.5,0001.6,0012.01,0016.96,0011.51
2022-02-03 23:38:00,,0828.1,4.99,0.00,22.4,21.7,00.0,31.7,24.0,05.5,0002.0,0012.07,0017.02,0011.59
2022-02-03 23:39:00,,0828.1,5.01,0.00,22.4,21.6,00.0,31.7,24.0,05.5,0002.1,0012.09,0017.00,0011.62
2022-02-03 23:40:00,,0828.1,4.99,0.00,22.4,21.6,00.0,31.7,24.0,05.5,0002.4,0012.03,0016.89,0011.58
2022-02-03 23:41:00,,0828.2,5.00,0.00,22.5,22.1,00.0,31.7,24.2,05.4,0002.2,0012.02,0016.31,0011.58
2022-02-03 23:42:00,,0828.2,5.01,0.00,22.6,22.7,00.0,31.7,24.5,05.4,0002.2,0012.06,0016.68,0011.61
2022-02-03 23:43:00,,0828.2,5.00,0.00,22.7,22.9,00.0,31.7,24.6,05.4,0002.2,0012.08,0016.83,0011.62
2022-02-03 23:44:00,,0828.2,5.00,0.00,22.7,22.7,00.0,31.7,24.5,05.3,0002.3,0012.12,0016.46,0011.66
2022-02-03 23:45:00,,0828.2,4.99,0.00,22.7,22.5,00.0,31.7,24.4,05.3,0002.4,0012.15,0016.46,0011.72
2022-02-03 23:46:00,,0828.1,5.01,0.00,22.7,22.4,00.0,31.7,24.3,05.3,0002.2,0012.18,0016.65,0011.75
2022-02-03 23:47:00,,0828.1,5.00,0.00,22.6,22.2,00.0,31.7,24.3,05.3,0002.5,0012.26,0016.96,0011.82
2022-02-03 23:48:00,,0828.1,5.01,0.00,22.6,22.1,00.0,31.6,24.2,05.4,0002.3,0012.37,0017.67,0011.90
2022-02-03 23:49:00,,0828.2,5.00,0.00,22.5,21.9,00.0,31.6,24.1,05.4,0002.2,0012.46,0017.83,0011.97
2022-02-03 23:50:00,,0828.2,4.99,0.00,22.5,21.9,00.0,31.6,24.1,05.4,0002.3,0012.55,0018.01,0012.03
2022-02-03 23:51:00,,0828.3,5.01,0.00,22.5,21.8,00.0,31.6,24.1,05.4,0002.8,0012.60,0018.79,0012.06
2022-02-03 23:52:00,,0828.1,4.99,0.00,22.4,21.6,00.0,31.6,24.1,05.4,0003.1,0012.62,0018.76,0012.08
2022-02-03 23:53:00,,0828.2,5.00,0.00,22.4,21.6,00.0,31.6,24.1,05.4,0003.1,0012.57,0018.17,0012.06
2022-02-03 23:54:00,,0828.2,5.02,0.00,22.4,21.5,00.0,31.5,24.1,05.4,0003.3,0012.58,0018.17,0012.07
2022-02-03 23:55:00,,0828.2,4.98,0.00,22.4,21.5,00.0,31.5,24.1,05.4,0003.2,0012.61,0019.19,0012.09
2022-02-03 23:56:00,,0828.3,5.02,0.00,22.4,21.4,00.0,31.5,24.0,05.4,0003.1,0012.59,0019.44,0012.06
2022-02-03 23:57:00,,0828.3,4.99,0.00,22.3,21.4,00.0,31.5,24.0,05.4,0003.0,0012.55,0019.45,0012.01
2022-02-03 23:58:00,,0828.3,4.99,0.00,22.3,21.3,00.0,31.5,24.0,05.4,0002.7,0012.49,0019.20,0011.97
2022-02-03 23:59:00,,0828.3,5.01,0.00,22.3,21.3,00.0,31.4,24.0,05.4,0002.1,0012.41,0018.57,0011.90
